Zurück zum Katalog

BREEZE-M R/B

AktivMEO
NORAD 37381·ROCKET BODY·🇷🇺 Russia

Gestartet Feb 11, 2008 von Baikonur Cosmodrome

Loading…

Nächste Überflüge (nächste 24 Stunden)

TLE

AktuellSource: Space-Track

Epoche: Sep 14, 2026, 04:18 UTC

1 37381U 08006C   26257.17948388 -.00000252  00000-0  00000-0 0  9996
2 37381  12.1893  27.3876 0245904 305.1570 250.0617  0.95124303 63801

Verfolge BREEZE-M R/B in Echtzeit mit AllMySat

Download on the App Store